Location: Cahas Mountain Overlook
(37.0833°N, 80.1000°W)
Time: 18:59:43
(UTC-05:00)

ARIANE 6 FM1 Upper Stage - Pass Details

Date: 21 January 2026
Orbit: 522 x 609 km, 62.0° (Epoch: 15 February)

Event Time Altitude Azimuth Distance (km) Brightness Sun altitude
Rises 18:54:29 0° 209° (SSW) 2,723 6.8 -16.1°
Reaches altitude 10° 18:56:43 10° 208° (SSW) 1,817 5.8 -16.5°
Maximum altitude 19:00:47 78° 123° (ESE) 556 2.5 -17.3°
Enters shadow 19:02:29 33° 42° (NE) 907 3.3 -17.7°
